This is the latest recevied weather packets stored in our database for station/object AI5BL. If no packets are shown the sender has not sent any weather packets the latest 10 day(s).
| Time | Temp. | Humidity | Pressure | Rain* | Wind** | Luminosity | Snow |
|---|---|---|---|---|---|---|---|
| 1777414567 | 26.67° C | 78% | 1016.8 hPa | 0 mm | - | 42 W/m² | - |
| 1777414262 | 26.67° C | 75% | 1016.7 hPa | 0 mm | - | 53 W/m² | - |
| 1777413958 | 26.67° C | 75% | 1016.6 hPa | 0 mm | - | 63 W/m² | - |
| 1777413653 | 27.22° C | 75% | 1016.7 hPa | 0 mm | - | 66 W/m² | - |
| 1777413349 | 27.22° C | 74% | 1016.8 hPa | 0 mm | - | 78 W/m² | - |
| 1777413045 | 27.22° C | 76% | 1016.6 hPa | 0 mm | - | 90 W/m² | - |
| 1777412740 | 27.22° C | 77% | 1016.6 hPa | 0 mm | - | 82 W/m² | - |
| 1777412438 | 27.78° C | 75% | 1016.6 hPa | 0 mm | - | 90 W/m² | - |
| 1777412137 | 27.78° C | 74% | 1016.8 hPa | 0 mm | - | 93 W/m² | - |
| 1777411833 | 27.78° C | 75% | 1016.7 hPa | 0 mm | - | 107 W/m² | - |
| 1777411531 | 27.78° C | 74% | 1016.6 hPa | 0 mm | - | 125 W/m² | - |
| 1777411227 | 27.78° C | 74% | 1016.6 hPa | 0 mm | - | 148 W/m² | - |
| 1777410927 | 28.33° C | 71% | 1016.9 hPa | 0 mm | - | 143 W/m² | - |
| 1777410626 | 28.33° C | 75% | 1016.8 hPa | 0 mm | - | 149 W/m² | - |
| 1777410322 | 28.33° C | 76% | 1016.7 hPa | 0 mm | - | 128 W/m² | - |
| 1777410016 | 28.89° C | 72% | 1016.8 hPa | 0 mm | - | 133 W/m² | - |
| 1777409710 | 28.89° C | 67% | 1016.8 hPa | 0 mm | - | 186 W/m² | - |
| 1777409407 | 28.89° C | 71% | 1017.1 hPa | 0 mm | - | 215 W/m² | - |
| 1777409102 | 28.89° C | 69% | 1016.8 hPa | 0 mm | - | 219 W/m² | - |
| 1777408799 | 28.89° C | 74% | 1017 hPa | 0 mm | - | 240 W/m² | - |
| 1777408495 | 28.89° C | 73% | 1017.2 hPa | 0 mm | - | 232 W/m² | - |
| 1777408189 | 29.44° C | 66% | 1017.3 hPa | 0 mm | - | 250 W/m² | - |
| 1777407885 | 28.89° C | 73% | 1017.3 hPa | 0 mm | - | 309 W/m² | - |
| 1777407584 | 28.89° C | 68% | 1017.5 hPa | 0 mm | - | 214 W/m² | - |
| 1777407283 | 29.44° C | 74% | 1017.6 hPa | 0 mm | - | 194 W/m² | - |
* Rain latest hour (hover to see other rain measurements)
** Current wind speed in m/s (hover to see current wind gust speed)